User: anonymous   Login
Location: Chevoux
(46.3801°N, 4.9476°E)
Time: 23:03:10
(UTC+00:00)
Language:

USA 229 - Orbit

View from above orbital plane
View from above orbital plane
View from above satellite
View from above satellite

Ground track
Ground track

The orbit data is extracted from the following two-line orbital elements,

1 37386U 11014A   21106.86751155 0.00000000  00000-0  00000-0 0    05
2 37386  63.4444  53.6987 0197972 358.0624   1.9376 13.40820463    02
Epoch (UTC): 16 April 2021 20:49:12
Eccentricity: 0.0197972
inclination: 63.4444°
perigee height: 958 km
apogee height: 1254 km
right ascension of ascending node: 53.6987°
argument of perigee: 358.0624°
revolutions per day: 13.40820463
mean anomaly at epoch: 1.9376°
orbit number at epoch: 0

The dashed part of the orbit path shows where the satellite is in the earth's shadow,  

DLR